www.pogodaiklimat.ru

Погода и климат >> Архив погоды >> Австрия >> Фельбах


ПОГОДА в Фельбахе

  • Прогноз погоды в Фельбахе
  • Монитор погоды в Фельбахе

АРХИВ ПОГОДЫ в Фельбахе

Время (UTC), дата Ветер
(напр.,м/с)
 
Видим.   Явления Облачность Т
(С)
Тd
(С)
f
(%)
Тe
(С)
Тes
(С)
Комфортность P
(гПа)
Po
(гПа)
Тmin
(С)
Tmax
(С)
R
(мм)
R24
(мм)
S
(см)
01 9.09 З 1 н/о в посл. час осадки н/о +14.3 +14.2 99 +15 +15 1010.6 973.2 0.2
02 9.09 СВ 1 н/о осадки н/о +14.3 +14.1 99 +15 +15 1008.9 971.6 3
03 9.09 ЮЗ 1 н/о {ливн. осадки} н/о +14.0 +13.8 99 +14 +14 1009.4 972.0 3
04 9.09 СЗ 1 н/о н/о +12.7 +12.6 99 +13 +13 1009.3 971.8
05 9.09 Ю 1 н/о н/о +13.0 +12.9 99 +13 +13 1010.0 972.5
06 9.09 З 1 н/о {ливн. осадки} н/о +13.9 +13.4 97 +14 +14 1010.4 973.0 +12.5 +15.2 13
07 9.09 ЮЗ 1 н/о н/о +14.5 +13.1 91 +15 +15 1010.3 973.0
08 9.09 ЮЗ 1 н/о н/о +14.8 +13.0 89 +15 +15 1010.9 973.6
09 9.09 Ю 2 н/о осадки н/о +15.3 +13.1 87 +15 +15 1011.3 974.0 0.0
10 9.09 З 1 н/о в посл. час осадки н/о +16.1 +12.7 80 +17 +17 1010.9 973.7 0.0
11 9.09 З 2 н/о н/о +17.3 +12.3 72 +18 +18 1010.4 973.4 0.0
12 9.09 СЗ 2 н/о {осадки} н/о +18.0 +12.3 69 +19 +19 1010.7 973.8 0.0
13 9.09 З 1 н/о н/о +16.9 +9.8 63 +18 +18 1011.1 974.0
14 9.09 СЗ 2 н/о н/о +18.2 +10.3 60 +19 +19 1010.9 974.0
15 9.09 СЗ 2 н/о н/о +17.9 +9.9 59 +18 +18 1011.2 974.2
16 9.09 СЗ 2 н/о н/о +17.3 +9.1 59 +18 +18 1012.3 975.2
17 9.09 С 2 н/о н/о +16.2 +10.6 69 +16 +16 1013.0 975.7
18 9.09 ЮВ 1 н/о н/о +13.9 +11.7 87 +14 +14 1014.5 976.9 +13.7 +19.1 0.0
19 9.09 В 1 н/о н/о +12.7 +11.4 92 +13 +13 1015.6 977.8
20 9.09 штиль 0 н/о н/о +11.3 +10.6 95 +11 +11 1016.6 978.6
21 9.09 штиль 0 н/о н/о +10.3 +9.9 97 +9 +9 1017.1 978.9
22 9.09 штиль 0 н/о н/о +10.0 +9.6 97 +9 +9 1017.5 979.3
23 9.09 ЮЗ 1 н/о н/о +9.4 +9.0 97 +9 +9 1017.9 979.6
00 10.09 З 1 н/о н/о +8.9 +8.6 98 +8 +8 1018.4 980.0
01 10.09 штиль 0 н/о н/о +9.1 +8.7 97 +8 +8 1018.3 979.9
02 10.09 штиль 0 н/о н/о +8.2 +7.8 97 +7 +7 1018.4 979.9
03 10.09 З 1 н/о н/о +8.1 +7.9 99 +7 +7 1018.5 980.0
04 10.09 СЗ 1 н/о н/о +7.6 +7.3 98 +7 +7 1018.7 980.1
05 10.09 Ю 1 н/о н/о +8.5 +8.3 99 +8 +8 1018.7 980.2
06 10.09 штиль 0 н/о н/о +9.4 +9.2 99 +8 +8 1019.2 980.8 +7.5 +14.3
07 10.09 штиль 0 н/о н/о +10.9 +10.6 98 +10 +10 1019.4 981.2
08 10.09 ЮЗ 2 н/о н/о +13.2 +11.3 88 +12 +12 1019.8 981.9
09 10.09 Ю 1 н/о н/о +16.6 +12.0 74 +17 +17 1018.9 981.5
10 10.09 Ю 3 н/о н/о +17.7 +11.7 68 +18 +18 1018.9 981.6
11 10.09 Ю 2 н/о н/о +19.5 +12.0 62 +21 +21 комфорт 1018.4 981.4
12 10.09 ЮВ 2 н/о н/о +19.5 +12.2 63 +21 +21 комфорт 1018.5 981.5
13 10.09 ЮВ 2 н/о н/о +20.2 +11.7 58 +23 +23 комфорт 1018.1 981.2
14 10.09 Ю 3 н/о н/о +20.3 +11.0 55 +22 +22 комфорт 1018.1 981.2
15 10.09 ЮВ 2 н/о н/о +20.6 +11.7 57 +23 +23 комфорт 1018.0 981.1
16 10.09 Ю 1 н/о н/о +19.7 +11.6 60 +22 +22 комфорт 1018.1 981.1
17 10.09 Ю 1 н/о н/о +17.1 +11.9 71 +18 +18 1018.4 981.1
18 10.09 С 1 н/о н/о +15.5 +12.0 80 +16 +16 1018.9 981.4 +9.3 +21.2
19 10.09 штиль 0 н/о н/о +14.2 +12.2 88 +14 +14 1019.7 982.0
20 10.09 штиль 0 н/о н/о +12.8 +11.8 94 +12 +12 1020.3 982.4
21 10.09 штиль 0 н/о н/о +12.3 +11.6 95 +12 +12 1021.0 983.0
22 10.09 штиль 0 н/о н/о +11.7 +11.2 97 +11 +11 1021.5 983.4
23 10.09 штиль 0 н/о н/о +10.9 +10.6 98 +10 +10 1021.8 983.5
00 11.09 штиль 0 н/о н/о +10.4 +10.1 98 +10 +10 1022.0 983.7
01 11.09 Ю 1 н/о н/о +9.8 +9.5 98 +9 +9 1022.0 983.6
02 11.09 штиль 0 н/о н/о +9.8 +9.5 98 +9 +9 1022.0 983.6
03 11.09 В 1 н/о н/о +9.3 +9.1 99 +9 +9 1021.9 983.4
04 11.09 ЮЗ 1 н/о н/о +8.8 +8.6 99 +8 +8 1022.2 983.6
05 11.09 штиль 0 н/о н/о +9.1 +8.9 99 +8 +8 1022.8 984.2
06 11.09 ЮЗ 1 н/о н/о +11.1 +10.2 94 +11 +11 1022.8 984.5 +8.5 +15.8
07 11.09 С 1 н/о н/о +13.8 +11.5 86 +14 +14 1022.8 984.9
08 11.09 СВ 1 н/о н/о +16.9 +12.2 74 +18 +18 1022.8 985.3
09 11.09 В 1 н/о н/о +19.2 +13.3 69 +22 +22 комфорт 1022.7 985.5
10 11.09 ЮЗ 1 н/о н/о +19.8 +12.7 64 +23 +23 комфорт 1022.4 985.3
11 11.09 ЮВ 1 н/о н/о +21.2 +11.1 52 +23 +23 комфорт 1022.3 985.3
12 11.09 ЮВ 2 н/о н/о +22.0 +11.8 52 +24 +24 комфорт 1022.2 985.3
13 11.09 Ю 1 н/о н/о +21.5 +12.1 55 +24 +24 комфорт 1022.2 985.3
14 11.09 В 1 н/о н/о +22.0 +12.5 55 +25 +25 комфорт 1021.4 984.6
15 11.09 ЮЗ 1 н/о н/о +22.0 +12.6 55 +25 +25 комфорт 1021.4 984.6
16 11.09 ЮЗ 1 н/о н/о +20.6 +14.6 68 +24 +24 комфорт 1021.8 984.8
17 11.09 ЮЗ 1 н/о н/о +17.9 +13.3 74 +19 +19 1022.5 985.1
18 11.09 штиль 0 н/о н/о +16.3 +13.6 84 +16 +16 1023.2 985.6 +11.1 +22.4
19 11.09 ЮЗ 1 н/о н/о +15.6 +13.8 89 +16 +16 1024.0 986.3
20 11.09 штиль 0 н/о н/о +14.8 +13.8 94 +14 +14 1024.6 986.8
21 11.09 штиль 0 н/о н/о +14.1 +13.2 94 +14 +14 1025.2 987.3
22 11.09 штиль 0 н/о н/о +13.7 +12.9 95 +13 +13 1025.7 987.7
23 11.09 З 1 н/о н/о +12.9 +12.2 96 +13 +13 1026.1 988.0
00 12.09 штиль 0 н/о н/о +12.3 +11.7 96 +12 +12 1026.1 987.9
01 12.09 В 1 н/о н/о +11.8 +11.3 97 +12 +12 1026.2 987.9
02 12.09 З 1 н/о н/о +11.8 +11.2 96 +12 +12 1026.5 988.2
03 12.09 штиль 0 н/о н/о +10.9 +10.3 96 +10 +10 1027.1 988.6
04 12.09 штиль 0 н/о н/о +10.4 +9.9 97 +10 +10 1027.6 989.0
05 12.09 ЮЗ 1 н/о н/о +10.7 +10.3 97 +10 +10 1028.3 989.8
06 12.09 штиль 0 н/о н/о +13.7 +11.7 88 +13 +13 1028.3 990.2 +10.1 +16.3
07 12.09 штиль 0 н/о н/о +15.5 +12.8 84 +15 +15 1028.8 990.9
08 12.09 СВ 1 н/о н/о +19.6 +13.0 66 +22 +22 комфорт 1028.9 991.5
09 12.09 СВ 1 н/о н/о +21.0 +11.5 55 +24 +24 комфорт 1029.2 992.0
10 12.09 штиль 0 н/о н/о +23.1 +12.4 51 +26 +26 жарко 1029.0 992.0
11 12.09 ЮВ 1 н/о н/о +23.1 +12.1 50 +26 +26 жарко 1029.0 992.0
12 12.09 В 1 н/о н/о +23.3 +10.9 46 +26 +26 жарко 1028.7 991.8
13 12.09 штиль 0 н/о н/о +24.2 +11.3 44 +26 +26 жарко 1028.1 991.3 0.0
14 12.09 Ю 1 н/о н/о +24.6 +11.5 44 +26 +26 жарко 1027.8 991.1
15 12.09 ЮЗ 1 н/о н/о +23.6 +11.8 47 +25 +25 комфорт 1027.8 990.9 0.0
16 12.09 ЮЗ 1 н/о н/о +22.3 +13.7 58 +25 +25 комфорт 1027.9 990.9
17 12.09 ЮЗ 1 н/о н/о +19.9 +12.4 62 +23 +23 комфорт 1028.5 991.2
18 12.09 ЮВ 1 н/о н/о +17.4 +13.3 77 +18 +18 1029.1 991.4 +13.1 +24.8 0.0
20 12.09 СЗ 1 н/о н/о +15.3 +13.8 91 +16 +16 1030.4 992.4
21 12.09 штиль 0 н/о н/о +14.2 +13.2 94 +14 +14 1030.7 992.6
22 12.09 штиль 0 н/о н/о +13.3 +12.7 96 +13 +13 1031.2 992.9
23 12.09 штиль 0 н/о н/о +13.2 +12.4 95 +13 +13 1031.3 993.0
00 13.09 штиль 0 н/о н/о +12.6 +11.7 94 +12 +12 1031.3 992.9
01 13.09 В 1 н/о н/о +12.6 +11.7 94 +13 +13 1031.3 992.9
02 13.09 Ю 1 н/о н/о +11.8 +11.2 96 +12 +12 1031.1 992.6
03 13.09 штиль 0 н/о н/о +11.9 +11.2 95 +11 +11 1031.4 992.9
04 13.09 штиль 0 н/о н/о +11.4 +10.8 96 +11 +11 1031.5 992.9
05 13.09 штиль 0 н/о н/о +11.8 +11.1 95 +11 +11 1031.4 992.9
06 13.09 З 1 н/о н/о +14.6 +11.7 83 +15 +15 1031.0 992.9 +11.2 +17.9
07 13.09 З 1 н/о н/о +17.9 +13.2 74 +19 +19 1030.6 992.9
08 13.09 штиль 0 н/о н/о +19.1 +13.9 72 +20 +20 1030.5 993.0
09 13.09 штиль 0 н/о н/о +22.5 +15.6 65 +26 +26 жарко 1029.7 992.7
10 13.09 З 1 н/о н/о +24.2 +15.1 57 +27 +27 жарко 1029.2 992.4
11 13.09 ЮЗ 1 н/о н/о +24.8 +12.6 47 +27 +27 жарко 1028.8 992.1
12 13.09 Ю 1 н/о н/о +24.7 +11.0 42 +26 +26 жарко 1028.3 991.5
13 13.09 Ю 1 н/о н/о +25.0 +10.9 41 +26 +26 жарко 1027.9 991.2
14 13.09 В 1 н/о н/о +25.2 +12.2 44 +27 +27 жарко 1027.5 990.8
15 13.09 СЗ 1 н/о н/о +24.9 +13.1 48 +27 +27 жарко 1027.2 990.5
16 13.09 Ю 1 н/о н/о +23.8 +13.5 52 +26 +26 жарко 1027.3 990.5
17 13.09 ЮЗ 1 н/о н/о +20.2 +13.7 66 +23 +23 комфорт 1028.0 990.7
18 13.09 ЮВ 1 н/о н/о +18.6 +14.6 78 +20 +20 1028.5 991.0 +14.5 +25.9
19 13.09 штиль 0 н/о н/о +17.1 +14.2 83 +17 +17 1029.0 991.3
20 13.09 штиль 0 н/о н/о +16.5 +14.2 86 +16 +16 1029.4 991.6
21 13.09 штиль 0 н/о н/о +15.9 +14.4 91 +16 +16 1029.9 992.0
22 13.09 штиль 0 н/о н/о +15.2 +14.0 93 +15 +15 1030.0 992.0
23 13.09 штиль 0 н/о н/о +14.7 +13.7 94 +14 +14 1030.0 992.0
00 14.09 штиль 0 н/о н/о +14.5 +13.7 95 +14 +14 1030.0 991.9
01 14.09 штиль 0 н/о н/о +14.3 +13.5 95 +14 +14 1029.9 991.8
02 14.09 штиль 0 н/о н/о +14.3 +13.4 94 +14 +14 1029.7 991.6
03 14.09 штиль 0 н/о н/о +14.5 +13.5 94 +14 +14 1029.5 991.5
04 14.09 штиль 0 н/о н/о +14.6 +13.5 93 +14 +14 1029.5 991.5
05 14.09 штиль 0 н/о н/о +14.6 +13.8 95 +14 +14 1030.2 992.1
06 14.09 штиль 0 н/о н/о +15.4 +14.3 93 +15 +15 1030.4 992.4 +14.0 +19.3
07 14.09 штиль 0 н/о н/о +16.3 +15.0 92 +16 +16 1030.5 992.7
08 14.09 СЗ 1 н/о н/о +18.2 +15.2 83 +20 +20 1030.7 993.1
09 14.09 СВ 1 н/о н/о +19.3 +14.7 75 +22 +22 комфорт 1030.7 993.2
10 14.09 СВ 2 н/о н/о +19.4 +14.5 73 +22 +22 комфорт 1030.7 993.2
11 14.09 СВ 1 н/о н/о +19.8 +14.9 73 +23 +23 комфорт 1030.4 993.0
12 14.09 В 2 н/о н/о +20.7 +13.5 63 +24 +24 комфорт 1029.6 992.3
13 14.09 В 2 н/о н/о +21.2 +13.7 62 +24 +24 комфорт 1029.0 991.8
14 14.09 В 1 н/о н/о +21.7 +13.6 60 +24 +24 комфорт 1028.4 991.3
15 14.09 В 1 н/о н/о +21.7 +14.3 63 +25 +25 комфорт 1028.0 990.9
16 14.09 СВ 2 н/о н/о +20.9 +13.4 62 +24 +24 комфорт 1027.9 990.7
17 14.09 СВ 1 н/о н/о +20.1 +13.7 67 +23 +23 комфорт 1028.0 990.7
18 14.09 штиль 0 н/о н/о +18.1 +13.5 74 +18 +18 1028.4 990.9 +15.3 +22.1
19 14.09 штиль 0 н/о н/о +17.0 +13.5 80 +17 +17 1028.9 991.2
20 14.09 штиль 0 н/о н/о +16.2 +13.7 85 +16 +16 1029.0 991.2
21 14.09 Ю 1 н/о н/о +15.9 +14.1 89 +17 +17 1029.2 991.4
22 14.09 штиль 0 н/о н/о +15.8 +14.4 91 +16 +16 1028.9 991.1
23 14.09 штиль 0 н/о н/о +15.8 +14.1 90 +16 +16 1029.2 991.3
00 15.09 штиль 0 н/о н/о +14.9 +13.1 89 +15 +15 1029.0 991.0
01 15.09 Ю 1 н/о н/о +14.2 +12.9 92 +14 +14 1028.8 990.7
02 15.09 Ю 1 н/о н/о +13.7 +13.0 96 +14 +14 1028.3 990.2
03 15.09 штиль 0 н/о н/о +14.1 +13.3 95 +14 +14 1028.2 990.1
04 15.09 Ю 1 н/о н/о +13.2 +12.6 96 +13 +13 1027.9 989.7
05 15.09 Ю 1 н/о н/о +12.6 +11.7 94 +13 +13 1028.0 989.7
06 15.09 В 1 н/о н/о +13.7 +12.7 94 +14 +14 1027.7 989.6 +12.3 +18.3
07 15.09 СЗ 1 н/о н/о +16.6 +12.6 77 +17 +17 1027.4 989.7
08 15.09 Ю 2 н/о н/о +19.4 +11.0 58 +21 +21 комфорт 1026.5 989.2
09 15.09 Ю 2 н/о н/о +20.2 +10.8 55 +22 +22 комфорт 1026.3 989.1
10 15.09 ЮВ 2 н/о н/о +21.1 +11.9 56 +23 +23 комфорт 1025.5 988.4
11 15.09 Ю 3 н/о н/о +21.4 +13.4 60 +24 +24 комфорт 1024.7 987.7
12 15.09 Ю 2 н/о н/о +22.6 +14.4 60 +26 +26 жарко 1023.7 986.9
13 15.09 Ю 2 н/о н/о +24.0 +15.2 58 +27 +27 жарко 1022.6 986.0
14 15.09 Ю 2 н/о н/о +23.7 +14.3 56 +26 +26 жарко 1022.0 985.4
15 15.09 Ю 2 н/о н/о +24.0 +15.5 59 +27 +27 жарко 1021.2 984.7
16 15.09 Ю 1 н/о н/о +22.8 +15.3 63 +27 +27 душно 1021.0 984.3
17 15.09 ЮЗ 1 н/о н/о +20.8 +14.9 69 +25 +25 комфорт 1020.7 983.8
18 15.09 штиль 0 н/о н/о +19.0 +15.2 79 +20 +20 1020.8 983.7 +13.6 +24.5
19 15.09 штиль 0 н/о н/о +17.0 +15.2 89 +17 +17 1021.1 983.7
20 15.09 штиль 0 н/о н/о +15.6 +14.6 94 +15 +15 1021.2 983.6
21 15.09 штиль 0 н/о н/о +15.4 +14.7 96 +15 +15 1020.9 983.3
22 15.09 С 1 н/о н/о +14.3 +13.7 96 +15 +15 1021.0 983.2
23 15.09 штиль 0 н/о н/о +14.3 +13.9 97 +14 +14 1020.8 983.1

 

Местоположение метеостанции Фельбах (Австрия): широта 46.95 долгота 15.88 высота над уровнем моря 320 м.

В архиве по умолчанию представлена погода в Фельбахе за последнюю неделю. Архивные данные за месяц целиком и за предыдущие месяцы, начиная с января 2011 года, Вы можете получить, выбрав интересующий диапазон дат из раскрывающегося списка и нажав кнопку "Ввод!".


*Определитесь, кто Вы:
робот инопланетянин человек

Внимание! Время в таблицах - всемирное. Для получения местного времени необходимо прибавить поправку, которая равна 1 ч.

Смотрите также архив погоды в соседних городах и на ближайших метеорологических станциях:

Погода в Бад-Глайхенбере (Австрия) (9 км)
Погода в Ласницхёэ (Австрия) (26 км)
Погода в Бад-Радкерсбурге (Австрия) (31 км)
Погода в Лейбнице (Австрия) (32 км)
Погода в Сентготтхарде (Венгрия) (34 км)
Погода в Граце (Австрия) (35 км)
Погода в Хартберге (Австрия) (37 км)
Погода в Граце университет (Австрия) (38 км)
Погода в Санкт Радегунд бай Грац (Австрия) (39 км)
Погода в Мурска-Соботе (Словения) (40 км)

Пояснения к столбцам:

Ветер - указаны скорость ветра в м/с - средняя за 10 мин, порывы в срок и между сроками (в фигурных скобках) и направление, откуда дует ветер: С - северный, СВ - северо-восточный, В - восточный, ЮВ - юго-восточный, Ю - южный, ЮЗ - юго-западный, З - западный, СЗ - северо-западный.
Видимость - горизонтальная дальность видимости в метрах или километрах. При видимости от 1 до 10 км при отсутствии осадков обычно наблюдается дымка, при ухудшении видимости до 1 км и менее - туман. В сухую погоду видимость может ухудшаться дымом, пылью или мглою.
Явления - указаны атмосферные явления, наблюдавшиеся в срок или в последний час перед сроком; фигурными скобками обозначены явления, наблюдавшиеся между сроками (за 1-3 часа до срока); квадратными скобками обозначены град или гололедные отложения с указанием их диаметра в мм.
Облачность - указаны через наклонную черту общая и нижняя облачность в баллах и высота нижней границы облаков в метрах; квадратными скобками обозначены формы облаков: Ci - перистые, Cs - перисто-слоистые, Cc - перисто-кучевые, Ac - высококучевые, As - высокослоистые, Sc - слоисто-кучевые, Ns - слоисто-дождевые, Cu - кучевые, Cb - кучево-дождевые. Подробнее классификацию облаков см. в Атласе облаков (PDF).
T - Температура воздуха - температура, измеренная на высоте 2 м над землей.
Td - Температура точки росы - температура, при понижении до которой содержащийся в воздухе водяной пар достигнет насыщения.
f - Относительная влажность воздуха - влажноcть воздуха, измеренная на высоте 2 м над землей.
Te - Эффективная температура - температура, которую ощущает одетый по сезону человек в тени. Характеристика душности погоды. При расчете учитывается влияние влажности воздуха и скорости ветра на теплоощущения человека.
Tes - Эффективная температура на солнце - температура, которую ощущает человек, с поправкой на солнечный нагрев. Характеристика знойности погоды. Зависит от высоты солнца над горизонтом, облачности и скорости ветра. Ночью, в пасмурную погоду, а также при ветре 12 м/с и более поправка равна нулю.
P - Атмосферное давление - приведенное к уровню моря атмосферное давление.
Po - Атмосферное давление - измеренное на уровне метеостанции атмосферное давление.
Tmin - Минимальная температура - минимум температуры воздуха на высоте 2 м над землей.
Tmax - Максимальная температура - максимум температуры воздуха на высоте 2 м над землей.
R - Количество осадков - Количество выпавших осадков за период времени, мм. При наведении курсора мыши на число - период времени, за который выпало указанное количество осадков.
R24 - Количество осадков - Количество выпавших осадков за 24 часа, мм.
S - Снежный покров - Высота снежного покрова, см. При наведении курсора мыши на число - состояние снежного покрова и степень покрытия местности в баллах.